Regional Weather Roundup
Issued by NWS Raleigh/Durham, NC

Home | Current Version | Previous Version | Text Only | Print | Product List | Glossary On
Versions: 1 2 3 4 5 6 7 8 9 10 11 12 13 14 15 16 17 18 19 20 21 22 23 24 25 26 27
000
ASUS42 KRAH 260810
RWRRAH
NORTH CAROLINA WEATHER ROUNDUP
NATIONAL WEATHER SERVICE RALEIGH NC
400 AM EDT SUN OCT 26 2014

NOTE: "FAIR" INDICATES FEW OR NO CLOUDS BELOW 12,000 FEET WITH NO
SIGNIFICANT WEATHER AND/OR OBSTRUCTIONS TO VISIBILITY.

NCZ001-053-055-056-065-067-260900-
WESTERN NORTH CAROLINA

CITY           SKY/WX    TMP DP  RH WIND       PRES   REMARKS
ASHEVILLE      CLEAR     45  42  89 CALM      30.01F
JEFFERSON      CLEAR     57  46  66 NW16G26   29.93F
MORGANTON      CLEAR     63  50  62 SW3       29.97F
HICKORY        CLEAR     61  50  67 NW7       29.92F
RUTHERFORDTON  CLEAR     60  50  69 W7        29.94S
MOUNT AIRY     CLEAR     53  48  84 CALM      29.90S
BOONE          CLEAR     56  49  76 NW15G38   29.95F
$$

NCZ021-022-025-041-071-084-088-260900-
CENTRAL NORTH CAROLINA

CITY           SKY/WX    TMP DP  RH WIND       PRES   REMARKS
CHARLOTTE      CLEAR     51  46  83 W5        29.91F
GREENSBORO     CLEAR     61  49  64 NW15G22   29.86S
WINSTON-SALEM  CLEAR     61  48  62 NW12      29.89S
RALEIGH-DURHAM CLEAR     51  43  74 CALM      29.82F
FORT BRAGG     CLEAR     55  44  65 SW3       29.84S
FAYETTEVILLE   CLEAR     57  44  62 SW10      29.85F
BURLINGTON     CLEAR     53  46  77 W7        29.85S
LAURINBURG     CLEAR     47  44  90 W3        29.88F
$$

NCZ011-015-027-028-043-044-047-080-103-260900-
NORTHEASTERN NORTH CAROLINA

CITY           SKY/WX    TMP DP  RH WIND       PRES   REMARKS
ROCKY MT-WILSO CLEAR     55  44  66 W5        29.81S
GREENVILLE     CLEAR     54  45  71 CALM      29.83S
WASHINGTON     CLEAR     53  44  70 W3        29.80S
ELIZABETH CITY CLEAR     57  45  64 W8        29.75F
MANTEO         CLEAR     60  46  61 W9        29.76F
CAPE HATTERAS  CLEAR     61  51  70 W10G17    29.77F
$$

NCZ078-087-090-091-093-098-101-260900-
SOUTHEASTERN NORTH CAROLINA

CITY           SKY/WX    TMP DP  RH WIND       PRES   REMARKS
LUMBERTON      CLEAR     49  44  83 W5        29.86F
GOLDSBORO      CLEAR     53  49  87 W6        29.81F
KINSTON        CLEAR     55  44  68 W6        29.83S
KENANSVILLE    CLEAR     52  43  71 W6        29.85S
NEW BERN       CLEAR     57  44  62 W9        29.82F
CHERRY POINT   CLEAR     58  44  60 W12       29.82F
BEAUFORT       CLEAR     61  47  59 W9        29.81F HAZE
JACKSONVILLE   CLEAR     54  44  69 W8        29.82F
WILMINGTON     CLEAR     55  44  66 W8        29.85F
$$




USA.gov is the U.S. government's official web portal to all federal, state and local government web resources and services.